This is the latest recevied weather packets stored in our database for station/object wb2ifs-13. If no packets are shown the sender has not sent any weather packets the latest 10 day(s).
| Time | Temp. | Humidity | Pressure | Rain* | Wind** | Luminosity | Snow |
|---|---|---|---|---|---|---|---|
| 1777713300 | 8.89° C | 91% | 1013.5 hPa | 0 mm | - | - | - |
| 1777712400 | 8.89° C | 93% | 1013.4 hPa | 0 mm | - | - | - |
| 1777711498 | 8.89° C | 95% | 1013.2 hPa | 0 mm | - | - | - |
| 1777710599 | 8.89° C | 95% | 1013.2 hPa | 0 mm | - | - | - |
| 1777709698 | 8.89° C | 95% | 1013.2 hPa | 0 mm | - | - | - |
| 1777708800 | 8.89° C | 95% | 1013.2 hPa | 0 mm | - | - | - |
| 1777707898 | 8.89° C | 96% | 1013.1 hPa | 0 mm | - | - | - |
| 1777706998 | 9.44° C | 96% | 1013.2 hPa | 0 mm | - | - | - |
| 1777706098 | 9.44° C | 95% | 1013.2 hPa | 0 mm | - | - | - |
| 1777705198 | 9.44° C | 96% | 1013.4 hPa | 0 mm | - | - | - |
| 1777704299 | 9.44° C | 95% | 1013.3 hPa | 0 mm | - | - | - |
| 1777703398 | 10° C | 95% | 1013.2 hPa | 0 mm | - | - | - |
| 1777702498 | 10.56° C | 95% | 1013.3 hPa | 0 mm | - | - | - |
| 1777701599 | 10.56° C | 95% | 1013.3 hPa | 0 mm | - | - | - |
| 1777700698 | 10.56° C | 95% | 1013.1 hPa | 0 mm | - | - | - |
| 1777699798 | 10.56° C | 95% | 1013 hPa | 0 mm | - | - | - |
| 1777698898 | 10.56° C | 94% | 1013.4 hPa | 0 mm | - | - | - |
| 1777698002 | 10.56° C | 94% | 1013.5 hPa | 0.25 mm | - | - | - |
| 1777697100 | 10.56° C | 93% | 1013.7 hPa | 0.51 mm | - | - | - |
| 1777696200 | 11.11° C | 91% | 1013.7 hPa | 0.51 mm | - | - | - |
| 1777695300 | 11.11° C | 87% | 1013.5 hPa | 0.51 mm | - | - | - |
| 1777694399 | 11.67° C | 82% | 1013.2 hPa | 0.25 mm | - | - | - |
| 1777693499 | 12.22° C | 76% | 1013 hPa | 0 mm | - | - | - |
| 1777692599 | 12.78° C | 73% | 1013 hPa | 0 mm | - | - | - |
| 1777691700 | 12.78° C | 74% | 1012.8 hPa | 0 mm | - | - | - |
* Rain latest hour (hover to see other rain measurements)
** Current wind speed in m/s (hover to see current wind gust speed)